Location: Chacón
(10.5789°N, 66.9317°W)
Time: 04:09:43
(UTC+00:00)

Cosmos 962 Rocket - Pass Details

Date: 16 October 2025
Orbit: 950 x 998 km, 82.9° (Epoch: 17 November)

Event Time Altitude Azimuth Distance (km) Brightness Sun altitude
Rises 08:54:47 0° 354° (N) 3,690 7.4 -20.8°
Reaches altitude 10° 08:57:19 10° 353° (N) 2,736 6.7 -20.2°
Maximum altitude 09:03:35 78° 267° (W) 997 4.4 -18.6°
Drops below altitude 10° 09:09:47 10° 181° (S) 2,703 6.9 -17.1°
Sets 09:12:16 0° 180° (S) 3,643 7.6 -16.5°
